(226883) = 2004 TF124

Discovered at Socorro on 2004-10-07 by LINEAR.

Orbit

Orbit type: Main Belt

Note: WebGL enabled browser required.

epoch2023-09-13.0
epoch JD2460200.5
perihelion date2023-02-28.71794
perihelion JD2460004.21794
argument of perihelion (°)115.90712
ascending node (°)219.89378
inclination (°)3.23898
eccentricity0.1050862
perihelion distance (AU)2.5062024
Tisserand w.r.t. Jupiter3.3
ΔV w.r.t. Earth (km/sec)10.0
semimajor axis (AU)2.8004959
mean anomaly (°)41.27927
mean daily motion (°/day)0.21030590
aphelion distance (AU)3.095
period (years)4.69
P-vector [x]0.91120492
P-vector [y]-0.39528862
P-vector [z]-0.11598492
Q-vector [x]0.41035646
Q-vector [y]0.84618792
Q-vector [z]0.33996114
absolute magnitude16.21
phase slope0.15
uncertainty0
referenceMPEC 2024-A65
observations used302
oppositions14
arc length (days)7054
first opposition used2004
last opposition used2024
residual rms (arc-secs)0.78
perturbers coarse indicatorM-v
perturbers precise indicator003Ek
first observation date used2004-09-13.0
last observation date used2024-01-06.0
computer nameMPCLINUX
JD of orbit computation2456552.352577
perihelion JD uncertainty (days)1.1990E-04
argument of perihelion uncertainty (°)1.1939E-04
ascending node uncertainty (°)1.1593E-04
inclination uncertainty (°)5.1684E-06
eccentricity uncertainty 7.7089E-08
perihelion distance uncertainty (AU)2.3934E-07
Minimum Orbit Intersection Distances (in AU)
for orbit epoch: 2460200.5, reference: E2024-A65
Mercury2.10676
Venus1.78449
Earth1.49811
Mars1.13466
Jupiter2.23256
Saturn6.09249
Uranus15.3617
Neptune27.138

Observations

316 total observations over interval: 2004 09 13.29541 – 2024 01 06.283339
These data are available for download (format description).

Date (UT) J2000 RA J2000 Dec Magn Location Ref
2004 09 13.29541 00 26 35.30 +06 27 23.1 19.9   704 – Lincoln Laboratory ETS, New Mexico MPS 120576
2004 09 13.30678 00 26 34.80 +06 27 20.6 20.1   704 – Lincoln Laboratory ETS, New Mexico MPS 120576
2004 09 13.31817 00 26 34.32 +06 27 17.2 19.9   704 – Lincoln Laboratory ETS, New Mexico MPS 120576
2004 09 13.32955 00 26 33.85 +06 27 13.6 19.6   704 – Lincoln Laboratory ETS, New Mexico MPS 120576
2004 09 16.26630 00 24 28.70 +06 11 31.6 19.5 R 699 – Lowell Observatory-LONEOS MPS 369369
2004 09 16.28418 00 24 28.11 +06 11 24.1   699 – Lowell Observatory-LONEOS MPS 369369
2004 09 16.30205 00 24 27.34 +06 11 16.6   699 – Lowell Observatory-LONEOS MPS 369369
2004 09 16.31995 00 24 26.53 +06 11 11.4   699 – Lowell Observatory-LONEOS MPS 369369
2004 09 22.28556 00 19 57.21 +05 36 25.5 19.4   704 – Lincoln Laboratory ETS, New Mexico MPS 120576
2004 09 22.29772 00 19 56.61 +05 36 21.5 19.9   704 – Lincoln Laboratory ETS, New Mexico MPS 120576
2004 09 22.30986 00 19 56.02 +05 36 17.1 19.9   704 – Lincoln Laboratory ETS, New Mexico MPS 120576
2004 09 22.32199 00 19 55.47 +05 36 12.5 19.9   704 – Lincoln Laboratory ETS, New Mexico MPS 120576
2004 10 07.27879 00 08 29.82 +04 01 30.0 19.9   704 – Lincoln Laboratory ETS, New Mexico MPS 117835
2004 10 07.29010 00 08 29.31 +04 01 24.4 19.8   704 – Lincoln Laboratory ETS, New Mexico MPS 117835
2004 10 07.31232 00 08 28.29 +04 01 15.1 20.1   704 – Lincoln Laboratory ETS, New Mexico MPS 117835
2004 10 07.32348 00 08 27.80 +04 01 12.7 19.7   704 – Lincoln Laboratory ETS, New Mexico MPS 117835
2004 10 09.20770 00 07 07.97 +03 49 25.1 20.4   704 – Lincoln Laboratory ETS, New Mexico MPS 117835
2004 10 09.21842 00 07 07.53 +03 49 19.9 20.6   704 – Lincoln Laboratory ETS, New Mexico MPS 117835
2004 10 09.22914 00 07 07.07 +03 49 15.3 20.0   704 – Lincoln Laboratory ETS, New Mexico MPS 117835
2004 10 09.23985 00 07 06.58 +03 49 13.2 20.2   704 – Lincoln Laboratory ETS, New Mexico MPS 117835
2005 12 01.42322 07 40 24.92 +17 34 16.9 21.1 V G96 – Mt. Lemmon Survey MPS 158989
2005 12 01.43132 07 40 24.74 +17 34 16.8 21.3 V G96 – Mt. Lemmon Survey MPS 158989
2005 12 01.43941 07 40 24.52 +17 34 16.3 21.1 V G96 – Mt. Lemmon Survey MPS 158989
2005 12 01.44747 07 40 24.31 +17 34 16.2 21.2 V G96 – Mt. Lemmon Survey MPS 158989
2005 12 27.28664 07 23 13.30 +17 41 46.2   691 – Steward Observatory, Kitt Peak-Spacewatch MPS 157785
2005 12 27.30396 07 23 12.37 +17 41 47.4   691 – Steward Observatory, Kitt Peak-Spacewatch MPS 157785
2005 12 27.32128 07 23 11.38 +17 41 48.4   691 – Steward Observatory, Kitt Peak-Spacewatch MPS 157785
2006 01 02.27641 07 17 44.16 +17 48 26.0 20.3 V G96 – Mt. Lemmon Survey MPS 157785
2006 01 02.28133 07 17 43.90 +17 48 26.3 19.9 V G96 – Mt. Lemmon Survey MPS 157785
2006 01 02.29379 07 17 43.22 +17 48 28.8 17.0 V G96 – Mt. Lemmon Survey MPS 157785
2006 01 02.30091 07 17 42.72 +17 48 28.1 20.7 V G96 – Mt. Lemmon Survey MPS 157785
2007 03 12.25136 12 21 49.37 -05 33 02.1 20.6 V 691 – Steward Observatory, Kitt Peak-Spacewatch MPS 203059
2007 03 12.26904 12 21 48.59 -05 32 56.8 20.9 V 691 – Steward Observatory, Kitt Peak-Spacewatch MPS 203059
2007 03 12.28671 12 21 47.81 -05 32 51.5 20.8 V 691 – Steward Observatory, Kitt Peak-Spacewatch MPS 203059
2007 03 26.29845 12 11 00.49 -04 15 18.5 20.2 V G96 – Mt. Lemmon Survey MPS 205545
2007 03 26.30667 12 11 00.09 -04 15 16.0 20.3 V G96 – Mt. Lemmon Survey MPS 205545
2007 03 26.31488 12 10 59.70 -04 15 12.8 20.4 V G96 – Mt. Lemmon Survey MPS 205545
2007 03 26.32314 12 10 59.30 -04 15 10.1 20.2 V G96 – Mt. Lemmon Survey MPS 205545
2007 04 19.21286 11 54 08.06 -02 00 24.2 20.9 V G96 – Mt. Lemmon Survey MPS 206912
2007 04 19.22013 11 54 07.81 -02 00 21.9 20.6 V G96 – Mt. Lemmon Survey MPS 206912
2007 04 19.22735 11 54 07.59 -02 00 20.0 20.6 V G96 – Mt. Lemmon Survey MPS 206912
2007 04 19.23450 11 54 07.30 -02 00 17.6 20.6 V G96 – Mt. Lemmon Survey MPS 206912
2009 10 21.32171 02 56 52.04 +16 51 52.1 19.6 V 703 – Catalina Sky Survey MPS 299357
2009 10 21.32977 02 56 51.61 +16 51 50.5 19.7 V 703 – Catalina Sky Survey MPS 299357
2009 10 21.33785 02 56 51.14 +16 51 49.7 19.5 V 703 – Catalina Sky Survey MPS 299357
2009 10 21.34595 02 56 50.89 +16 51 46.7 20.0 V 703 – Catalina Sky Survey MPS 299357
2009 10 24.30456 02 54 29.78 +16 37 51.2   691 – Steward Observatory, Kitt Peak-Spacewatch MPS 300651
2009 10 24.32176 02 54 28.88 +16 37 46.3   691 – Steward Observatory, Kitt Peak-Spacewatch MPS 300651
2009 10 24.33901 02 54 28.01 +16 37 41.3   691 – Steward Observatory, Kitt Peak-Spacewatch MPS 300651
2009 11 08.24093 02 41 39.94 +15 21 14.4 19.4 V G96 – Mt. Lemmon Survey MPS 302160
2009 11 08.24707 02 41 39.62 +15 21 12.5 19.5 V G96 – Mt. Lemmon Survey MPS 302160
2009 11 08.25331 02 41 39.30 +15 21 10.5 19.4 V G96 – Mt. Lemmon Survey MPS 302160
2009 11 08.25949 02 41 38.94 +15 21 08.6 19.6 V G96 – Mt. Lemmon Survey MPS 302160
2009 11 09.31907 02 40 44.00 +15 15 35.3 19.5 V G96 – Mt. Lemmon Survey MPS 302160
2009 11 09.32628 02 40 43.64 +15 15 33.0 19.4 V G96 – Mt. Lemmon Survey MPS 302160
2009 11 09.33331 02 40 43.24 +15 15 30.9 19.4 V G96 – Mt. Lemmon Survey MPS 302160
2009 11 09.34066 02 40 42.85 +15 15 28.5 19.4 V G96 – Mt. Lemmon Survey MPS 302160
2009 11 18.27479 02 33 23.47 +14 30 08.4 19.8 V G96 – Mt. Lemmon Survey MPS 303274
2009 11 18.28316 02 33 23.07 +14 30 05.7 19.6 V G96 – Mt. Lemmon Survey MPS 303274
2009 11 18.29183 02 33 22.64 +14 30 03.3 19.7 V G96 – Mt. Lemmon Survey MPS 303274
2009 11 18.30022 02 33 22.24 +14 30 01.1 19.7 V G96 – Mt. Lemmon Survey MPS 303274
2011 01 28.29346 08 58 11.78 +12 13 51.3 20.0 V G96 – Mt. Lemmon Survey MPS 368420
2011 01 28.30094 08 58 11.35 +12 13 52.9 20.2 V G96 – Mt. Lemmon Survey MPS 368420
2011 01 28.30850 08 58 10.95 +12 13 54.4 20.3 V G96 – Mt. Lemmon Survey MPS 368420
2011 01 28.31610 08 58 10.52 +12 13 56.3 20.3 V G96 – Mt. Lemmon Survey MPS 368420
2011 02 12.20599 08 45 17.27 +13 09 40.7 20.9 V 291 – LPL/Spacewatch II MPS 371326
2011 02 12.20978 08 45 17.09 +13 09 41.4 20.9 V 291 – LPL/Spacewatch II MPS 371326
2011 02 12.21393 08 45 16.86 +13 09 42.5 20.7 V 291 – LPL/Spacewatch II MPS 371326
2011 03 02.14718 08 32 48.76 +14 12 26.0 20.2 V 703 – Catalina Sky Survey MPS 376986
2011 03 02.15542 08 32 48.48 +14 12 27.4 20.3 V 703 – Catalina Sky Survey MPS 376986
2011 03 02.16370 08 32 48.08 +14 12 31.4 20.2 V 703 – Catalina Sky Survey MPS 376986
2011 03 02.17196 08 32 47.65 +14 12 33.0 20.5 V 703 – Catalina Sky Survey MPS 376986
2012 03 15.56858 14 15 47.174 -14 56 17.52 20.8 i F51 – Pan-STARRS 1, Haleakala MPS 417056
2012 03 15.58026 14 15 46.931 -14 56 15.90 20.6 i F51 – Pan-STARRS 1, Haleakala MPS 417056
2012 03 23.32481 14 12 37.58 -14 35 43.4 20.8 V 691 – Steward Observatory, Kitt Peak-Spacewatch MPS 418274
2012 03 23.34258 14 12 37.00 -14 35 40.2 21.2 V 691 – Steward Observatory, Kitt Peak-Spacewatch MPS 418274
2012 03 23.36036 14 12 36.47 -14 35 37.3 21.2 V 691 – Steward Observatory, Kitt Peak-Spacewatch MPS 418274
2012 03 31.30793 14 08 05.58 -14 06 48.5 20.4 V 691 – Steward Observatory, Kitt Peak-Spacewatch MPS 420055
2012 03 31.32571 14 08 04.86 -14 06 43.9 20.6 V 691 – Steward Observatory, Kitt Peak-Spacewatch MPS 420055
2012 03 31.34347 14 08 04.18 -14 06 39.5 20.8 V 691 – Steward Observatory, Kitt Peak-Spacewatch MPS 420055
2012 04 19.27188 13 53 50.28 -12 33 57.7 19.8 V G96 – Mt. Lemmon Survey MPS 421700
2012 04 19.27941 13 53 49.88 -12 33 55.2 19.6 V G96 – Mt. Lemmon Survey MPS 421700
2012 04 19.28697 13 53 49.52 -12 33 53.1 19.8 V G96 – Mt. Lemmon Survey MPS 421700
2012 04 19.29452 13 53 49.12 -12 33 50.5 20.0 V G96 – Mt. Lemmon Survey MPS 421700
2012 04 29.22697 13 45 46.90 -11 39 00.6 20.3 V G96 – Mt. Lemmon Survey MPS 423572
2012 04 29.23215 13 45 46.69 -11 38 58.6 19.9 V G96 – Mt. Lemmon Survey MPS 423572
2012 04 29.23741 13 45 46.47 -11 38 57.1 19.7 V G96 – Mt. Lemmon Survey MPS 423572
2012 04 29.24260 13 45 46.15 -11 38 55.0 20.1 V G96 – Mt. Lemmon Survey MPS 423572
2012 05 24.17944 13 30 19.04 -09 43 10.1 21.2 V G96 – Mt. Lemmon Survey MPS 425853
2012 05 24.18877 13 30 18.82 -09 43 08.9 20.6 V G96 – Mt. Lemmon Survey MPS 425853
2012 05 24.19810 13 30 18.57 -09 43 06.3 20.7 V G96 – Mt. Lemmon Survey MPS 425853
